Hourly Data Report for June 15, 2021

ATIKOKAN (AUT)
ONTARIO
Current Station Operator: ECCC - MSC

48°45'40.000" N
91°37'41.000" W
389.30 m
6020LPQ
71747
WCH

Download Data

Hourly Data (June 2021)
Hourly Data Report for June 15, 2021
TIME
LST
Temp Definition
°C
Dew Point Definition
°C
Rel Hum Definition
%
Precip. Amount Definition
mm

Wind Dir Definition
10's deg

Wind Spd Definition
km/h
Visibility Definition
km
Stn Press Definition
kPa
Hmdx Definition


Wind Chill Definition


Weather Definition


00:00 9.5 9.2 98 0.0   0   97.61     LegendNANA
01:00 9.1 8.8 98 0.0 0 1   97.64     LegendNANA
02:00 8.5 8.3 98 0.0   0   97.65     LegendNANA
03:00 7.9 7.7 98 0.0   0   97.70     LegendNANA
04:00 7.6 7.3 98 0.0   0   97.74     LegendNANA
05:00 8.1 7.9 99 0.0   0   97.77     LegendNANA
06:00 10.3 10.2 99 0.0   0   97.77     LegendNANA
07:00 14.6 12.4 87 0.0 0 1   97.80     LegendNANA
08:00 17.0 12.2 74 0.0 25 1   97.83     LegendNANA
09:00 19.1 11.4 61 0.0 9 5   97.84     LegendNANA
10:00 20.4 10.3 52 0.3 2 5   97.80     LegendNANA
11:00 19.9 11.1 57 0.2 35 5   97.82     LegendNANA
12:00 22.0 12.0 53 0.3 32 6   97.75     LegendNANA
13:00 21.4 9.0 45 0.0 2 6   97.69     LegendNANA
14:00 23.6 9.0 39 0.0 36 6   97.67     LegendNANA
15:00 24.0 8.8 38 0.0 3 4   97.63 25   LegendNANA
16:00 23.4 7.8 37 0.0 5 6   97.56     LegendNANA
17:00 24.0 8.9 38 0.0 33 6   97.55 25   LegendNANA
18:00 23.3 8.1 38 0.0 34 6   97.53     LegendNANA
19:00 21.8 10.9 50 0.0 29 1   97.51     LegendNANA
20:00 16.3 9.5 64 0.0 0 1   97.52     LegendNANA
21:00 13.3 10.0 80 0.0   0   97.52     LegendNANA
22:00 12.0 11.1 94 0.0 0 1   97.50     LegendNANA
23:00 10.8 10.2 96 0.0 7 3   97.47     LegendNANA

Notes on Data Quality.

Legend

  • E = Estimated
  • M = Missing
  • NA = Not Available*
  • [empty] = Indicates an unobserved value
Date modified: